| time (UTC) | temp F | wind direction | speed knots | gust knots | rain 1hr in | rain 24hr in | rain mn in | humidity % | barometer mb |
| 20260507231531 | 58 | 52 | 0.9 | 1.7 | 0.00 | 0.02 | 0.01 | 93 | 1016.7 |
| 20260507230528 | 58 | 0.0 | 0.0 | 0.01 | 0.02 | 0.01 | 93 | 1016.8 | |
| 20260507225521 | 58 | 0.0 | 0.0 | 0.01 | 0.02 | 0.01 | 93 | 1016.8 | |
| 20260507224539 | 59 | 0.0 | 0.0 | 0.01 | 0.02 | 0.01 | 92 | 1016.7 | |
| 20260507223517 | 59 | 0.0 | 0.0 | 0.01 | 0.02 | 0.01 | 92 | 1016.9 | |
| 20260507222610 | 59 | 270 | 0.0 | 1.7 | 0.01 | 0.02 | 0.01 | 92 | 1016.8 |
| 20260507221607 | 59 | 302 | 1.7 | 3.5 | 0.01 | 0.02 | 0.01 | 91 | 1016.8 |
| 20260507220605 | 59 | 0.0 | 0.0 | 0.00 | 0.01 | 0.00 | 90 | 1016.7 | |
| 20260507215618 | 59 | 0.0 | 0.0 | 0.00 | 0.01 | 0.01 | 89 | 1016.5 | |
| 20260507214555 | 59 | 0.0 | 0.0 | 0.00 | 0.01 | 0.01 | 89 | 1016.4 | |
| 20260507213554 | 59 | 0.0 | 0.0 | 0.00 | 0.01 | 0.01 | 88 | 1016.5 | |
| 20260507212551 | 59 | 0.0 | 0.0 | 0.00 | 0.01 | 0.01 | 88 | 1016.3 | |
| 20260507211544 | 59 | 0.0 | 0.0 | 0.00 | 0.01 | 0.01 | 88 | 1016.2 | |
| 20260507210541 | 59 | 0.0 | 0.0 | 0.00 | 0.01 | 0.01 | 88 | 1016.2 | |
| 20260507205539 | 59 | 0.0 | 0.0 | 0.00 | 0.01 | 0.01 | 88 | 1016.2 | |
| 20260507204532 | 59 | 0.0 | 0.0 | 0.00 | 0.01 | 0.01 | 87 | 1016.1 | |
| 20260507203530 | 59 | 0.0 | 0.0 | 0.00 | 0.01 | 0.01 | 87 | 1016.0 | |
| 20260507202528 | 59 | 0.0 | 0.0 | 0.00 | 0.01 | 0.01 | 87 | 1016.2 | |
| 20260507201520 | 59 | 0.0 | 0.0 | 0.00 | 0.01 | 0.01 | 86 | 1016.0 | |
| 20260507200518 | 59 | 0.0 | 0.0 | 0.00 | 0.01 | 0.01 | 86 | 1016.1 | |
| 20260507195516 | 59 | 0.0 | 0.0 | 0.00 | 0.01 | 0.01 | 86 | 1016.2 | |
| 20260507194608 | 59 | 0.0 | 0.0 | 0.00 | 0.01 | 0.01 | 85 | 1016.0 | |
| 20260507193607 | 59 | 0.0 | 0.0 | 0.00 | 0.01 | 0.01 | 84 | 1016.0 | |
| 20260507192604 | 60 | 0.0 | 0.0 | 0.00 | 0.01 | 0.01 | 84 | 1015.8 | |
| 20260507191557 | 60 | 0.0 | 0.0 | 0.00 | 0.01 | 0.01 | 83 | 1016.0 | |
| 20260507190555 | 60 | 0.0 | 0.0 | 0.00 | 0.01 | 0.01 | 83 | 1015.8 | |
| 20260507185553 | 60 | 0.0 | 0.0 | 0.00 | 0.01 | 0.01 | 82 | 1015.9 | |
| 20260507184545 | 61 | 0.0 | 0.0 | 0.00 | 0.01 | 0.01 | 81 | 1016.0 | |
| 20260507183543 | 61 | 0.0 | 0.0 | 0.00 | 0.01 | 0.01 | 81 | 1015.8 | |
| 20260507182601 | 61 | 0.0 | 0.9 | 0.00 | 0.01 | 0.01 | 80 | 1015.7 | |
| 20260507181533 | 62 | 0.0 | 0.0 | 0.00 | 0.01 | 0.01 | 80 | 1015.6 | |
| 20260507180531 | 62 | 315 | 0.9 | 1.7 | 0.00 | 0.01 | 0.01 | 80 | 1015.6 |
| 20260507175529 | 62 | 309 | 0.9 | 1.7 | 0.00 | 0.01 | 0.01 | 80 | 1015.4 |
| 20260507174522 | 62 | 307 | 0.9 | 1.7 | 0.00 | 0.01 | 0.01 | 79 | 1015.5 |
| 20260507173519 | 62 | 0.0 | 0.9 | 0.00 | 0.01 | 0.01 | 78 | 1015.4 | |
| 20260507172517 | 63 | 0.0 | 0.9 | 0.00 | 0.01 | 0.01 | 77 | 1015.3 | |
| 20260507171615 | 63 | 0.0 | 0.0 | 0.00 | 0.01 | 0.01 | 75 | 1015.4 | |
| 20260507170607 | 63 | 0.0 | 0.9 | 0.00 | 0.01 | 0.01 | 73 | 1015.4 | |
| 20260507165606 | 64 | 0.0 | 0.9 | 0.00 | 0.01 | 0.01 | 71 | 1015.3 | |
| 20260507164624 | 64 | 180 | 0.0 | 1.7 | 0.00 | 0.01 | 0.01 | 71 | 1015.4 |
| 20260507163556 | 65 | 194 | 0.9 | 2.6 | 0.00 | 0.01 | 0.01 | 71 | 1015.4 |
| 20260507162554 | 65 | 180 | 0.0 | 1.7 | 0.00 | 0.01 | 0.01 | 71 | 1015.4 |
| 20260507161552 | 65 | 180 | 0.0 | 1.7 | 0.00 | 0.01 | 0.01 | 71 | 1015.4 |
| 20260507160604 | 66 | 0.0 | 1.7 | 0.00 | 0.01 | 0.01 | 68 | 1015.4 | |
| 20260507155542 | 66 | 246 | 0.9 | 2.6 | 0.00 | 0.01 | 0.01 | 69 | 1015.4 |
| 20260507154540 | 66 | 219 | 0.9 | 2.6 | 0.00 | 0.01 | 0.01 | 70 | 1015.4 |
| 20260507153532 | 67 | 202 | 0.9 | 2.6 | 0.00 | 0.01 | 0.01 | 70 | 1015.5 |
| 20260507152530 | 67 | 149 | 1.7 | 3.5 | 0.00 | 0.01 | 0.01 | 70 | 1015.5 |
| 20260507151528 | 67 | 158 | 1.7 | 3.5 | 0.00 | 0.01 | 0.01 | 70 | 1015.5 |
| 20260507150601 | 67 | 174 | 1.7 | 4.3 | 0.00 | 0.01 | 0.01 | 70 | 1015.6 |
| 20260507145518 | 67 | 46 | 0.9 | 2.6 | 0.00 | 0.01 | 0.01 | 70 | 1015.5 |
| 20260507144516 | 67 | 167 | 1.7 | 3.5 | 0.00 | 0.01 | 0.01 | 70 | 1015.6 |
| 20260507143609 | 67 | 227 | 0.9 | 2.6 | 0.00 | 0.01 | 0.01 | 70 | 1015.7 |
| 20260507142607 | 67 | 112 | 0.9 | 1.7 | 0.00 | 0.01 | 0.01 | 70 | 1015.7 |
| 20260507141605 | 67 | 178 | 0.9 | 2.6 | 0.00 | 0.01 | 0.01 | 71 | 1015.8 |
| 20260507140557 | 67 | 270 | 0.9 | 1.7 | 0.00 | 0.01 | 0.01 | 71 | 1015.9 |
| 20260507135555 | 67 | 196 | 0.9 | 3.5 | 0.00 | 0.01 | 0.01 | 71 | 1015.8 |
| 20260507134553 | 67 | 205 | 1.7 | 3.5 | 0.00 | 0.01 | 0.01 | 71 | 1015.9 |
| 20260507133545 | 67 | 202 | 0.9 | 3.5 | 0.00 | 0.01 | 0.01 | 71 | 1015.9 |
| 20260507132543 | 67 | 247 | 1.7 | 3.5 | 0.00 | 0.01 | 0.01 | 71 | 1015.9 |
| 20260507131541 | 68 | 218 | 0.9 | 4.3 | 0.00 | 0.01 | 0.01 | 70 | 1015.9 |
| 20260507130534 | 68 | 150 | 1.7 | 3.5 | 0.00 | 0.01 | 0.01 | 71 | 1015.9 |
| 20260507125532 | 67 | 212 | 1.7 | 3.5 | 0.00 | 0.01 | 0.01 | 72 | 1016.0 |
| 20260507124530 | 67 | 180 | 1.7 | 3.5 | 0.00 | 0.01 | 0.01 | 73 | 1016.1 |
| 20260507123527 | 67 | 201 | 1.7 | 3.5 | 0.00 | 0.01 | 0.01 | 73 | 1016.1 |
| 20260507122520 | 66 | 131 | 1.7 | 4.3 | 0.00 | 0.01 | 0.01 | 74 | 1016.2 |
| 20260507121518 | 66 | 209 | 1.7 | 5.2 | 0.00 | 0.01 | 0.01 | 75 | 1016.2 |
| 20260507120516 | 66 | 180 | 2.6 | 3.5 | 0.00 | 0.01 | 0.01 | 75 | 1016.3 |
| 20260507115608 | 66 | 208 | 2.6 | 3.5 | 0.00 | 0.01 | 0.01 | 76 | 1016.2 |
| 20260507114606 | 66 | 150 | 0.9 | 3.5 | 0.00 | 0.01 | 0.01 | 75 | 1016.3 |
| 20260507113604 | 66 | 143 | 1.7 | 3.5 | 0.00 | 0.01 | 0.01 | 75 | 1016.3 |
| 20260507112556 | 65 | 211 | 1.7 | 3.5 | 0.00 | 0.01 | 0.01 | 77 | 1016.4 |
| 20260507111554 | 65 | 227 | 2.6 | 6.1 | 0.01 | 0.01 | 0.01 | 78 | 1016.4 |
| 20260507110552 | 65 | 200 | 0.9 | 2.6 | 0.01 | 0.01 | 0.01 | 79 | 1016.3 |
| 20260507105545 | 65 | 223 | 1.7 | 3.5 | 0.01 | 0.01 | 0.01 | 79 | 1016.5 |
| 20260507104542 | 64 | 251 | 2.6 | 7.0 | 0.01 | 0.01 | 0.01 | 80 | 1016.5 |
| 20260507103601 | 64 | 206 | 1.7 | 4.3 | 0.01 | 0.01 | 0.01 | 80 | 1016.5 |
| 20260507102533 | 64 | 208 | 0.9 | 4.3 | 0.01 | 0.01 | 0.01 | 79 | 1016.6 |
| 20260507101531 | 65 | 201 | 2.6 | 5.2 | 0.00 | 0.00 | 0.00 | 78 | 1016.6 |
| 20260507100549 | 65 | 180 | 2.6 | 3.5 | 0.00 | 0.00 | 0.00 | 78 | 1016.7 |
| 20260507095521 | 65 | 251 | 1.7 | 3.5 | 0.00 | 0.00 | 0.00 | 78 | 1016.6 |
| 20260507094539 | 64 | 218 | 1.7 | 3.5 | 0.00 | 0.00 | 0.00 | 77 | 1016.5 |
| 20260507093517 | 65 | 208 | 0.9 | 2.6 | 0.00 | 0.00 | 0.00 | 76 | 1016.4 |
| 20260507092609 | 65 | 158 | 1.7 | 4.3 | 0.00 | 0.00 | 0.00 | 74 | 1016.3 |
| 20260507091607 | 65 | 250 | 1.7 | 4.3 | 0.00 | 0.00 | 0.00 | 72 | 1016.3 |
| 20260507090705 | 65 | 304 | 2.6 | 7.0 | 0.00 | 0.00 | 0.00 | 71 | 1016.2 |
| 20260507085558 | 66 | 213 | 2.6 | 5.2 | 0.00 | 0.00 | 0.00 | 71 | 1016.2 |
| 20260507084556 | 66 | 175 | 3.5 | 6.1 | 0.00 | 0.00 | 0.00 | 70 | 1016.0 |
| 20260507083554 | 67 | 175 | 2.6 | 6.1 | 0.00 | 0.00 | 0.00 | 69 | 1015.9 |
| 20260507082612 | 67 | 213 | 2.6 | 5.2 | 0.00 | 0.00 | 0.00 | 70 | 1015.8 |
| 20260507081544 | 66 | 241 | 2.6 | 5.2 | 0.00 | 0.00 | 0.00 | 71 | 1015.7 |
| 20260507080602 | 66 | 225 | 3.5 | 6.1 | 0.00 | 0.00 | 0.00 | 71 | 1015.7 |
| 20260507075539 | 66 | 213 | 2.6 | 6.1 | 0.00 | 0.00 | 0.00 | 70 | 1015.6 |
| 20260507074532 | 67 | 126 | 0.9 | 2.6 | 0.00 | 0.00 | 0.00 | 72 | 1015.5 |
| 20260507073530 | 66 | 156 | 0.9 | 1.7 | 0.00 | 0.00 | 0.00 | 74 | 1015.6 |
| 20260507072528 | 65 | 159 | 1.7 | 3.5 | 0.00 | 0.00 | 0.00 | 75 | 1015.5 |
| 20260507071540 | 65 | 193 | 0.0 | 1.7 | 0.00 | 0.00 | 0.00 | 78 | 1015.5 |
| 20260507070518 | 63 | 0.0 | 1.7 | 0.00 | 0.00 | 0.00 | 81 | 1015.3 | |
| 20260507065516 | 62 | 0.0 | 0.0 | 0.00 | 0.00 | 0.00 | 81 | 1015.3 | |
| 20260507064030 | 61 | 0.0 | 0.9 | 0.00 | 0.00 | 0.00 | 79 | 1015.3 | |
| 20260507063027 | 61 | 0.0 | 0.9 | 0.00 | 0.00 | 0.00 | 77 | 1015.3 | |
| 20260507062026 | 62 | 0.0 | 0.9 | 0.00 | 0.00 | 0.00 | 74 | 1015.2 | |
| 20260507061023 | 63 | 225 | 0.0 | 1.7 | 0.00 | 0.00 | 0.00 | 72 | 1015.1 |
| 20260507060042 | 63 | 0.0 | 1.7 | 0.00 | 0.00 | 0.00 | 71 | 1015.0 | |
| 20260507055019 | 63 | 180 | 0.0 | 1.7 | 0.00 | 0.00 | 0.00 | 70 | 1014.9 |
| 20260507054017 | 63 | 225 | 0.0 | 1.7 | 0.00 | 0.00 | 0.00 | 71 | 1014.6 |
| 20260507053015 | 62 | 0.0 | 0.9 | 0.00 | 0.00 | 0.00 | 71 | 1014.6 | |
| 20260507052133 | 62 | 0.0 | 0.0 | 0.00 | 0.00 | 0.00 | 72 | 1014.5 | |
| 20260507051111 | 61 | 0.0 | 0.0 | 0.00 | 0.00 | 0.00 | 72 | 1014.4 | |
| 20260507050108 | 60 | 0.0 | 0.9 | 0.00 | 0.00 | 0.00 | 72 | 1014.4 | |
| 20260507045106 | 60 | 0.0 | 1.7 | 0.00 | 0.00 | 0.00 | 73 | 1014.4 | |
| 20260507044104 | 59 | 0.0 | 0.0 | 0.00 | 0.00 | 0.00 | 74 | 1014.2 | |
| 20260507043103 | 59 | 0.0 | 0.0 | 0.00 | 0.00 | 0.00 | 75 | 1014.1 | |
| 20260507042100 | 59 | 0.0 | 0.0 | 0.00 | 0.00 | 0.00 | 74 | 1013.9 | |
| 20260507041058 | 59 | 0.0 | 0.0 | 0.00 | 0.00 | 0.00 | 74 | 1013.6 | |
| 20260507040056 | 58 | 0.0 | 0.0 | 0.00 | 0.00 | 0.00 | 74 | 1013.6 | |
| 20260507035054 | 58 | 0.0 | 0.0 | 0.00 | 0.00 | 0.00 | 73 | 1013.6 | |
| 20260507034052 | 58 | 0.0 | 0.9 | 0.00 | 0.00 | 0.00 | 74 | 1013.8 | |
| 20260507033050 | 58 | 0.0 | 0.9 | 0.00 | 0.00 | 0.00 | 74 | 1013.8 | |
| 20260507032048 | 58 | 0.0 | 0.0 | 0.00 | 0.00 | 0.00 | 74 | 1013.6 | |
| 20260507031046 | 58 | 0.0 | 1.7 | 0.00 | 0.00 | 0.00 | 74 | 1013.6 | |
| 20260507030043 | 58 | 0.0 | 0.0 | 0.00 | 0.00 | 0.00 | 74 | 1013.3 | |
| 20260507025041 | 58 | 0.0 | 0.0 | 0.00 | 0.00 | 0.00 | 73 | 1012.9 | |
| 20260507024039 | 59 | 0.0 | 0.0 | 0.00 | 0.00 | 0.00 | 73 | 1012.8 | |
| 20260507023037 | 59 | 0.0 | 0.0 | 0.00 | 0.00 | 0.00 | 72 | 1012.9 | |
| 20260507022115 | 59 | 0.0 | 0.0 | 0.00 | 0.00 | 0.00 | 72 | 1013.0 | |
| 20260507021113 | 59 | 0.0 | 0.0 | 0.00 | 0.00 | 0.00 | 72 | 1012.9 | |
| 20260507020031 | 59 | 0.0 | 0.0 | 0.00 | 0.00 | 0.00 | 71 | 1012.7 | |
| 20260507015029 | 59 | 0.0 | 0.0 | 0.00 | 0.00 | 0.00 | 70 | 1012.8 | |
| 20260507014026 | 60 | 0.0 | 0.0 | 0.00 | 0.00 | 0.00 | 70 | 1012.9 | |
| 20260507013024 | 60 | 0.0 | 0.0 | 0.00 | 0.00 | 0.00 | 69 | 1012.9 | |
| 20260507012022 | 60 | 0.0 | 0.0 | 0.00 | 0.00 | 0.00 | 68 | 1012.5 | |
| 20260507010018 | 60 | 0.0 | 0.0 | 0.00 | 0.00 | 0.00 | 66 | 1012.5 | |
| 20260507005016 | 60 | 0.0 | 0.0 | 0.00 | 0.00 | 0.00 | 64 | 1012.6 | |
| 20260507004114 | 61 | 0.0 | 0.0 | 0.00 | 0.00 | 0.00 | 63 | 1012.7 | |
| 20260507003112 | 61 | 315 | 0.0 | 1.7 | 0.00 | 0.00 | 0.00 | 63 | 1012.9 |
| 20260507002109 | 60 | 187 | 0.9 | 3.5 | 0.00 | 0.00 | 0.00 | 63 | 1013.0 |
| 20260507001108 | 59 | 173 | 0.9 | 1.7 | 0.00 | 0.00 | 0.00 | 64 | 1013.0 |
| 20260507000105 | 58 | 219 | 0.9 | 1.7 | 0.00 | 0.00 | 0.00 | 65 | 1013.1 |
| 20260506235103 | 58 | 270 | 0.0 | 1.7 | 0.00 | 0.00 | 0.00 | 66 | 1013.0 |
| 20260506234101 | 57 | 210 | 0.0 | 1.7 | 0.00 | 0.00 | 0.00 | 68 | 1013.1 |
| 20260506233059 | 57 | 243 | 0.9 | 3.5 | 0.00 | 0.00 | 0.00 | 68 | 1012.8 |
| 20260506232057 | 57 | 0.0 | 0.9 | 0.00 | 0.00 | 0.00 | 67 | 1012.4 |